Weather History for KCRP - June, 2012

Change the Weather History Date:

Thursday, June 28, 2012

  Actual Average Record
Temperature  
Mean Temperature 87 °F 83 °F  
Max Temperature 97 °F 92 °F 101 °F (2013)
Min Temperature 76 °F 75 °F 65 °F (1974)
Degree Days  
Heating Degree Days 0 0  
Month to date heating degree days 0 0  
Since 1 June heating degree days 0 0  
Since 1 July heating degree days 611 898  
Cooling Degree Days 22 18  
Month to date cooling degree days 569 484  
Year to date cooling degree days 1802 1325  
Since 1 June cooling degree days 569 484  
Growing Degree Days 36 (Base 50)    
Moisture  
Dew Point 73 °F    
Average Humidity 67    
Maximum Humidity 91    
Minimum Humidity 42    
Precipitation  
Precipitation 0.00 in 0.12 in 1.44 in (1913)
Month to date precipitation 0.55 3.13  
Year to date precipitation 11.97 13.40  
Snow  
Snow 0.00 in - - ()
Month to date snowfall 0.0  
Since 1 June snowfall 0.0  
Since 1 July snowfall 0.0  
Snow Depth 0.00 in    
Sea Level Pressure  
Sea Level Pressure 29.97 in    
Wind  
Wind Speed 9 mph (SE)    
Max Wind Speed 22 mph    
Max Gust Speed 26 mph    
Visibility 10 miles    
Events      
T = Trace of Precipitation, MM = Missing Value Source: NWS Daily Summary

Daily Weather History Graph

Daily Weather History Graph

Search for Another Location

Airport or City:

Trip Planner

Search our weather history database for the weather conditions in past years. The results will help you decide how hot, cold, wet, or windy it might be!

Date:

Astronomy

Jun. 28, 2012 Rise Set
Actual Time 6:36 AM CDT 8:29 PM CDT
Civil Twilight 6:10 AM CDT 8:56 PM CDT
Nautical Twilight 5:38 AM CDT 9:28 PM CDT
Astronomical Twilight 5:04 AM CDT 10:02 PM CDT
Moon 3:19 PM CDT (6/28) 1:53 AM CDT (6/28)
Length of Visible Light 14h 46m
Length of Day
13h 53m
Waxing Gibbous, 67% of the Moon is Illuminated
Jun 28
Waxing Gibbous
Jul 3
Full
Jul 10
Last Quarter
Jul 18
New
Jul 26
First Quarter

Hourly Weather History & Observations

Time (CDT) Temp. Heat Index Dew Point Humidity Pressure Visibility Wind Dir Wind Speed Gust Speed Precip Events Conditions
12:51 AM 81.0 °F 86.7 °F 75.0 °F 82% 29.93 in 10.0 mi SSE 5.8 mph - N/A   Clear
1:51 AM 78.8 °F - 75.2 °F 89% 29.93 in 10.0 mi SSE 4.6 mph - N/A   Clear
2:51 AM 77.0 °F - 73.0 °F 88% 29.93 in 10.0 mi SSE 4.6 mph - N/A   Clear
3:51 AM 77.0 °F - 73.0 °F 88% 29.93 in 10.0 mi South 4.6 mph - N/A   Clear
4:51 AM 77.0 °F - 73.0 °F 88% 29.94 in 10.0 mi SSE 4.6 mph - N/A   Partly Cloudy
5:51 AM 77.0 °F - 73.0 °F 88% 29.95 in 10.0 mi Calm Calm - N/A   Partly Cloudy
6:51 AM 77.0 °F - 73.9 °F 90% 29.96 in 7.0 mi Calm Calm - N/A   Partly Cloudy
7:51 AM 81.0 °F 87.3 °F 75.9 °F 85% 29.99 in 6.0 mi Calm Calm - N/A   Haze
8:51 AM 86.0 °F 96.9 °F 77.0 °F 74% 30.01 in 9.0 mi South 6.9 mph - N/A   Partly Cloudy
9:51 AM 89.1 °F 99.1 °F 75.0 °F 63% 30.01 in 10.0 mi South 6.9 mph - N/A   Scattered Clouds
10:51 AM 89.1 °F 97.0 °F 73.0 °F 59% 30.01 in 10.0 mi SSE 4.6 mph - N/A   Scattered Clouds
11:51 AM 89.6 °F 98.2 °F 73.4 °F 59% 30.01 in 10.0 mi South 6.9 mph - N/A   Scattered Clouds
12:51 PM 93.0 °F 100.1 °F 71.1 °F 49% 30.01 in 10.0 mi SE 11.5 mph 23.0 mph N/A   Mostly Cloudy
1:51 PM 96.1 °F 103.5 °F 71.1 °F 44% 30.00 in 10.0 mi ESE 10.4 mph 21.9 mph N/A   Scattered Clouds
2:51 PM 96.1 °F 101.6 °F 69.1 °F 41% 29.99 in 10.0 mi SE 11.5 mph 23.0 mph N/A   Scattered Clouds
3:51 PM 97.0 °F 103.5 °F 70.0 °F 41% 29.98 in 10.0 mi East 16.1 mph 23.0 mph N/A   Scattered Clouds
4:51 PM 95.0 °F 101.3 °F 70.0 °F 44% 29.96 in 10.0 mi East 18.4 mph 24.2 mph N/A   Partly Cloudy
5:51 PM 93.0 °F 100.1 °F 71.1 °F 49% 29.95 in 10.0 mi ESE 17.3 mph - N/A   Partly Cloudy
6:51 PM 90.0 °F 96.9 °F 72.0 °F 55% 29.95 in 10.0 mi ESE 17.3 mph - N/A   Partly Cloudy
7:51 PM 88.0 °F 94.7 °F 72.0 °F 59% 29.95 in 10.0 mi SE 16.1 mph - N/A   Scattered Clouds
8:51 PM 86.0 °F 93.8 °F 73.9 °F 67% 29.96 in 10.0 mi SE 10.4 mph - N/A   Partly Cloudy
9:51 PM 84.9 °F 92.1 °F 73.9 °F 69% 29.97 in 10.0 mi SE 11.5 mph - N/A   Partly Cloudy
10:51 PM 84.9 °F 93.3 °F 75.0 °F 72% 29.98 in 10.0 mi SE 9.2 mph - N/A   Partly Cloudy
11:51 PM 84.0 °F 91.9 °F 75.0 °F 74% 30.00 in 10.0 mi SE 6.9 mph - N/A   Partly Cloudy